Other Public Products
Issued by NWS Charleston, SC

Current Version | Previous Version | Text Only | Print | Product List | Glossary Off
Versions: 1 2 3 4 5 6 7 8 9 10 11 12 13 14 15 16 17 18 19 20 21 22 23 24 25 26 27 28 29 30 31 32 33 34 35 36 37 38 39 40 41 42 43 44 45 46 47 48 49 50
000 FPUS82 KCHS 210212 OPUCHS TEST...KCHS/KSAV Gateway Observations...TEST National Weather Service Charleston SC 900 PM EST TUE FEB 20 2018 NOTE: "fair" indicates few or no clouds below 12,000 feet with no significant weather and/or obstructions to visibility. SCZ050-WAZ558-NCZ071-TXZ119-213-PAZ071-DCZ001-FLZ074-172-MI076- NYZ176-178-MAZ016-IL014-TNZ027-NJZ106-GAZ044-MD014-210300- ...Gateway Observations for Charleston International... CITY SKY/WX TMP DP RH WIND PRES REMARKS Chas Airport MOCLDY 67 65 93 SE5 30.44R Seattle MOCLDY 34 24 67 N13 30.20R WCI 25 Charlotte CLOUDY 67 61 81 NE6 30.42R Dallas DFW LGT RAIN 43 40 89 N12 30.06R Dallas Love HVY RAIN 43 41 93 N14 30.07R FOG Philladelphia MOCLDY 62 57 83 SW9 30.34R Wash National MOCLDY 64 55 72 S12 30.34R Baltimore FAIR 59 57 93 SE6 30.32S Miami MOCLDY 77 71 82 E16 30.32R Detroit LGT RAIN 64 57 78 W14 30.01R Newark MOCLDY 62 54 74 S6 30.31S Laguardia MOCLDY 58 49 72 S3 30.31S J F K MOCLDY 47 46 97 CALM 30.34R Boston Logan MOCLDY 44 43 96 NE5 30.28R Ft. Lauderdale FAIR 77 72 84 E17 30.32R Chicago O`Hare LGT RAIN 37 34 89 W7 30.05S WCI 32 Chicago Midway LGT RAIN 39 39 100 NW8 30.06R WCI 33 Houston Bush CLOUDY 75 70 84 S12 30.02R Houston Hobby CLOUDY 73 72 96 S14G20 30.01S Nashville MOCLDY 71 60 68 S13 30.18S Atlanta MOCLDY 69 63 81 SE7 30.34S $$ GAZ044-118-TXZ119-213-NCZ071-DCZ001-MDZ014-506-PAZ021-071-NJZ106- NYZ176-178-MAZ106-OHZ011-021-055-MIZ076-KYZ091-ILZ014-INZ047- MNZ060-ONZ431-210300- ...Gateway Observations for Savannah International... CITY SKY/WX TMP DP RH WIND PRES REMARKS Savannah Arpt FAIR 69 67 93 SE8 30.41R Atlanta MOCLDY 69 63 81 SE7 30.34S Charlotte CLOUDY 67 61 81 NE6 30.42R Dallas DFW LGT RAIN 43 40 89 N12 30.06R Houston Bush CLOUDY 75 70 84 S12 30.02R Wash National MOCLDY 64 55 72 S12 30.34R Wash Dulles FAIR 67 56 67 S14G24 30.32R Baltimore FAIR 59 57 93 SE6 30.32S Philadelphia MOCLDY 62 57 83 SW9 30.34R Newark MOCLDY 62 54 74 S6 30.31S Laguardia MOCLDY 58 49 72 S3 30.31S J F K MOCLDY 47 46 97 CALM 30.34R Boston MOCLDY 44 43 96 NE5 30.28R Pittsburg MOCLDY 65 51 60 S5 30.18S Akron FAIR 67 50 54 S13 30.13F Cleveland CLOUDY 71 54 54 S15G24 30.09S Cincinnati CLOUDY 70 57 63 S12 30.13S Columbus MOCLDY 67 54 63 S13 30.15R Detroit LGT RAIN 64 57 78 W14 30.01R Chicago O`Hare LGT RAIN 37 34 89 W7 30.05S WCI 32 Minneapolis FAIR 14 6 70 W13 30.23R WCI 0 Indianapolis CLOUDY 69 54 58 S18 30.04S Toronto Canada NOT AVBL $$

USA.gov is the U.S. government's official web portal to all federal, state and local government web resources and services.